Freeport, IL

12:56 AM CST on February 23, 2018 (GMT -0600)
Albertus

Weather History for KFEP - April, 2013

Change the Weather History Date:

Sunday, April 21, 2013

  Actual Average Record
Temperature  
Mean Temperature 45 °F -  
Max Temperature 59 °F 61 °F 90 °F (1987)
Min Temperature 31 °F 40 °F 27 °F (1988)
Degree Days  
Heating Degree Days 20    
Moisture  
Dew Point 32 °F    
Average Humidity 61    
Maximum Humidity 87    
Minimum Humidity 42    
Precipitation  
Precipitation 0.00 in - - ()
Sea Level Pressure  
Sea Level Pressure 30.37 in    
Wind  
Wind Speed 13 mph (SE)    
Max Wind Speed 23 mph    
Max Gust Speed 28 mph    
Visibility 10 miles    
Events      
Averages and records for this station are not official NWS values.
T = Trace of Precipitation, MM = Missing Value Source: NWS Daily Summary

Daily Weather History Graph

Daily Weather History Graph

Search for Another Location

Airport or City:

Trip Planner

Search our weather history database for the weather conditions in past years. The results will help you decide how hot, cold, wet, or windy it might be!

Date:

Astronomy

Apr. 21, 2013 Rise Set
Actual Time 6:07 AM CDT 7:46 PM CDT
Civil Twilight 5:38 AM CDT 8:16 PM CDT
Nautical Twilight 5:02 AM CDT 8:52 PM CDT
Astronomical Twilight 4:23 AM CDT 9:31 PM CDT
Moon 3:27 PM CDT (4/21) 3:34 AM CDT (4/21)
Length of Visible Light 14h 38m
Length of Day
13h 39m
Waxing Gibbous, 80% of the Moon is Illuminated
Apr 21
Waxing Gibbous
Apr 25
Full
May 2
Last Quarter
May 9
New
May 17
First Quarter

Hourly Weather History & Observations

Time (CDT) Temp. Windchill Dew Point Humidity Pressure Visibility Wind Dir Wind Speed Gust Speed Precip Events Conditions
12:15 AM 33.8 °F 27.0 °F 27.1 °F 77% 30.39 in 10.0 mi ESE 8.1 mph - N/A   Scattered Clouds
12:35 AM 33.8 °F 27.0 °F 27.3 °F 77% 30.39 in 10.0 mi ESE 8.1 mph - N/A   Scattered Clouds
12:55 AM 31.5 °F 24.2 °F 27.1 °F 84% 30.40 in 10.0 mi East 8.1 mph - N/A   Scattered Clouds
1:15 AM 33.3 °F 27.9 °F 29.3 °F 85% 30.40 in 10.0 mi ESE 5.8 mph - N/A   Scattered Clouds
1:35 AM 31.5 °F 25.8 °F 28.0 °F 87% 30.41 in 10.0 mi ESE 5.8 mph - N/A   Clear
4:35 AM 34.2 °F 24.8 °F 27.1 °F 75% 30.41 in 10.0 mi ESE 13.8 mph 19.6 mph N/A   Mostly Cloudy
4:55 AM 34.3 °F 25.0 °F 27.0 °F 74% 30.41 in 10.0 mi ESE 13.8 mph - N/A   Mostly Cloudy
5:15 AM 34.9 °F 25.3 °F 27.5 °F 74% 30.41 in 10.0 mi ESE 15.0 mph - N/A   Mostly Cloudy
5:35 AM 33.8 °F 24.8 °F 27.3 °F 77% 30.42 in 10.0 mi East 12.7 mph - N/A   Mostly Cloudy
5:55 AM 33.8 °F 25.3 °F 27.3 °F 77% 30.42 in 10.0 mi East 11.5 mph - N/A   Mostly Cloudy
6:15 AM 33.8 °F 25.3 °F 27.1 °F 77% 30.42 in 10.0 mi East 11.5 mph - N/A   Overcast
6:35 AM 34.9 °F 26.2 °F 27.7 °F 75% 30.43 in 10.0 mi ESE 12.7 mph - N/A   Mostly Cloudy
6:55 AM 35.6 °F 27.5 °F 28.0 °F 74% 30.44 in 10.0 mi East 11.5 mph - N/A   Scattered Clouds
7:15 AM 36.1 °F 28.7 °F 27.5 °F 71% 30.47 in 10.0 mi ESE 10.4 mph - N/A   Overcast
7:35 AM 38.7 °F 33.6 °F 29.5 °F 70% 30.48 in 10.0 mi ESE 6.9 mph 10.4 mph N/A   Mostly Cloudy
7:55 AM 38.7 °F 32.4 °F 28.9 °F 68% 30.49 in 10.0 mi ESE 9.2 mph - N/A   Mostly Cloudy
8:15 AM 38.7 °F 30.9 °F 28.2 °F 66% 30.48 in 10.0 mi ESE 12.7 mph - N/A   Mostly Cloudy
8:35 AM 38.7 °F 30.5 °F 27.9 °F 65% 30.49 in 10.0 mi SE 13.8 mph - N/A   Scattered Clouds
8:55 AM 39.4 °F 31.8 °F 28.4 °F 65% 30.48 in 10.0 mi ESE 12.7 mph - N/A   Clear
9:15 AM 41.9 °F 34.3 °F 28.0 °F 58% 30.48 in 10.0 mi ESE 15.0 mph - N/A   Mostly Cloudy
9:35 AM 41.2 °F 33.4 °F 27.7 °F 59% 30.48 in 10.0 mi ESE 15.0 mph 23.0 mph N/A   Overcast
9:55 AM 42.8 °F 36.2 °F 29.3 °F 59% 30.48 in 10.0 mi ESE 12.7 mph - N/A   Overcast
10:15 AM 44.6 °F 36.1 °F 28.8 °F 54% 30.46 in 10.0 mi ESE 21.9 mph - N/A   Overcast
10:35 AM 44.8 °F 36.6 °F 29.1 °F 54% 30.46 in 10.0 mi ESE 20.7 mph 26.5 mph N/A   Mostly Cloudy
10:55 AM 45.9 °F 37.8 °F 28.4 °F 51% 30.46 in 10.0 mi SE 21.9 mph 26.5 mph N/A   Mostly Cloudy
11:15 AM 46.9 °F - 29.3 °F 50% 30.45 in 10.0 mi ESE 20.7 mph 26.5 mph N/A   Scattered Clouds
11:35 AM 47.5 °F - 29.5 °F 50% 30.44 in 10.0 mi ESE 20.7 mph 27.6 mph N/A   Mostly Cloudy
11:55 AM 51.6 °F - 30.7 °F 45% 30.43 in 10.0 mi SE 19.6 mph 27.6 mph N/A   Mostly Cloudy
12:15 PM 51.4 °F - 31.3 °F 46% 30.42 in 10.0 mi ESE 18.4 mph 26.5 mph N/A   Scattered Clouds
12:35 PM 51.8 °F - 30.9 °F 45% 30.41 in 10.0 mi ESE 20.7 mph 26.5 mph N/A   Scattered Clouds
12:55 PM 51.4 °F - 30.9 °F 45% 30.40 in 10.0 mi ESE 23.0 mph - N/A   Mostly Cloudy
1:15 PM 52.0 °F - 31.6 °F 46% 30.39 in 10.0 mi SE 20.7 mph 24.2 mph N/A   Scattered Clouds
1:35 PM 54.0 °F - 32.4 °F 44% 30.38 in 10.0 mi ESE 19.6 mph 25.3 mph N/A   Scattered Clouds
1:55 PM 54.3 °F - 31.8 °F 42% 30.38 in 10.0 mi ESE 19.6 mph 27.6 mph N/A   Scattered Clouds
2:15 PM 54.1 °F - 32.5 °F 44% 30.37 in 10.0 mi SE 19.6 mph 26.5 mph N/A   Scattered Clouds
2:35 PM 54.5 °F - 33.3 °F 45% 30.36 in 10.0 mi SE 17.3 mph 24.2 mph N/A   Scattered Clouds
2:55 PM 55.9 °F - 33.6 °F 43% 30.35 in 10.0 mi SSE 18.4 mph 27.6 mph N/A   Scattered Clouds
3:15 PM 54.0 °F - 35.1 °F 49% 30.34 in 10.0 mi SE 19.6 mph 26.5 mph N/A   Mostly Cloudy
3:35 PM 59.0 °F - 36.7 °F 43% 30.33 in 10.0 mi ESE 20.7 mph 26.5 mph N/A   Scattered Clouds
3:55 PM 57.7 °F - 36.9 °F 46% 30.32 in 10.0 mi SE 17.3 mph 23.0 mph N/A   Scattered Clouds
4:15 PM 59.0 °F - 35.8 °F 42% 30.32 in 10.0 mi SE 19.6 mph 26.5 mph N/A   Scattered Clouds
4:35 PM 59.0 °F - 36.7 °F 43% 30.31 in 10.0 mi SE 19.6 mph 24.2 mph N/A   Scattered Clouds
4:55 PM 59.0 °F - 37.4 °F 45% 30.31 in 10.0 mi SE 18.4 mph 25.3 mph N/A   Clear
5:35 PM 59.0 °F - 38.3 °F 46% 30.29 in 10.0 mi SE 18.4 mph 24.2 mph N/A   Clear
5:55 PM 57.4 °F - 37.4 °F 47% 30.29 in 10.0 mi SE 19.6 mph 26.5 mph N/A   Clear
6:15 PM 57.4 °F - 38.7 °F 50% 30.29 in 10.0 mi SE 17.3 mph 24.2 mph N/A   Clear
6:35 PM 56.5 °F - 38.5 °F 51% 30.28 in 10.0 mi SE 20.7 mph - N/A   Clear
6:55 PM 54.0 °F - 38.1 °F 55% 30.28 in 10.0 mi SE 12.7 mph 20.7 mph N/A   Clear
7:15 PM 54.0 °F - 39.9 °F 59% 30.28 in 10.0 mi ESE 10.4 mph - N/A   Clear
7:35 PM 51.4 °F - 38.5 °F 61% 30.28 in 10.0 mi ESE 10.4 mph - N/A   Clear
7:55 PM 49.1 °F - 37.4 °F 64% 30.28 in 10.0 mi ESE 12.7 mph - N/A   Clear
8:15 PM 48.6 °F - 37.8 °F 66% 30.29 in 10.0 mi ESE 9.2 mph 16.1 mph N/A   Clear
8:35 PM 47.8 °F - 37.4 °F 67% 30.29 in 10.0 mi ESE 10.4 mph - N/A   Scattered Clouds
8:55 PM 47.5 °F - 37.2 °F 68% 30.29 in 10.0 mi SE 13.8 mph - N/A   Scattered Clouds
9:15 PM 46.9 °F - 37.2 °F 69% 30.29 in 10.0 mi SE 17.3 mph 20.7 mph N/A   Mostly Cloudy
9:35 PM 46.9 °F - 37.0 °F 68% 30.29 in 10.0 mi SE 17.3 mph - N/A   Mostly Cloudy
9:55 PM 46.4 °F 40.1 °F 36.7 °F 69% 30.29 in 10.0 mi SE 15.0 mph - N/A   Mostly Cloudy
10:15 PM 46.4 °F 41.1 °F 36.9 °F 69% 30.30 in 10.0 mi SSE 11.5 mph - N/A   Mostly Cloudy
10:35 PM 45.5 °F 38.3 °F 37.0 °F 72% 30.29 in 10.0 mi SE 17.3 mph - N/A   Mostly Cloudy
10:55 PM 46.0 °F 39.6 °F 37.0 °F 71% 30.29 in 10.0 mi SE 15.0 mph - N/A   Scattered Clouds
11:15 PM 45.0 °F 38.5 °F 36.5 °F 72% 30.29 in 10.0 mi SE 13.8 mph - N/A   Clear
11:35 PM 45.0 °F 38.2 °F 36.1 °F 71% 30.30 in 10.0 mi SSE 15.0 mph 18.4 mph N/A   Clear
11:55 PM 44.2 °F 37.3 °F 36.3 °F 74% 30.29 in 10.0 mi SE 15.0 mph - N/A   Clear